Flag Weather past 2 weeks in St. Louis, Missouri, U.S.A.

Now
36 °F

Overcast.


Feels Like: 28 °F
Forecast: 29 / 39 °F
Wind: 10 mph from Southeast

Location: Lambert-St. Louis International Airport

Current Time: Nov 26, 2014 at 11:40:00 AM

Latest Report: Nov 26, 2014 at 10:51 AM


Visibility: 8 mi

Pressure: 30.06 "Hg

Humidity: 73%

Dew point: 28 °F

Location of St. LouisLocation

Historic Weather in St. Louis — Graph

°F

St. Louis temperature yesterday

Maximum temperature yesterday: 41 °F (at 1:51 PM)
Minimum temperature yesterday: 28 °F (at 10:51 PM)
Average temperature yesterday: 34 °F

Past Weeks' High & Low Weather Summary

 TemperatureHumidityPressure
High59 °F (Nov 22, 11:04 AM)94% (Nov 23, 6:57 PM)30.51 "Hg (Nov 23, 6:57 PM)
Low14 °F (Nov 18, 6:51 AM)39% (Nov 15, 1:51 PM)29.19 "Hg (Nov 24, 12:59 AM)
Average34 °F64%30.16 "Hg
* Reported Nov 11 9:51 AM — Nov 26 9:51 AM, St. Louis, Weather by CustomWeather, © 2014

Note: Actual official high and low records may vary slightly from our data, if they occured in-between our weather recording intervals... More about our weather records

Advertising

St. Louis weather history for previous 24 hours

 ConditionsComfort  
Time TempWeatherWind HumidityBarometerVisibility
9:51 AM
Nov 26
34 °FMostly cloudy.12 mph76%30.07 "Hg7 mi
8:51 AM33 °FMostly cloudy.15 mph75%30.08 "Hg7 mi
7:51 AM31 °FMore clouds than sun.12 mph79%30.09 "Hg7 mi
6:51 AM30 °FPassing clouds.9 mph82%30.11 "Hg7 mi
5:51 AM30 °FPassing clouds.9 mph82%30.11 "Hg8 mi
4:51 AM31 °FPassing clouds.10 mph79%30.10 "Hg9 mi
3:51 AM30 °FMostly cloudy.5 mph82%30.11 "Hg9 mi
2:51 AM29 °FPassing clouds.8 mph79%30.13 "Hg9 mi
1:51 AM27 °FPassing clouds.8 mph81%30.14 "Hg9 mi
12:51 AM27 °FPassing clouds.7 mph78%30.16 "Hg9 mi
11:51 PM
Nov 25
28 °FPassing clouds.6 mph78%30.18 "Hg10 mi
10:51 PM28 °FPassing clouds.5 mph75%30.20 "Hg10 mi
9:51 PM30 °FPassing clouds.5 mph72%30.21 "Hg10 mi
8:51 PM30 °FPassing clouds.7 mph72%30.22 "Hg10 mi
7:51 PM32 °FClear.No wind66%30.21 "Hg10 mi
6:51 PM34 °FClear.No wind59%30.20 "Hg10 mi
5:51 PM38 °FPassing clouds.No wind51%30.20 "Hg10 mi
4:51 PM38 °FPassing clouds.6 mph51%30.19 "Hg10 mi
3:51 PM41 °FPassing clouds.7 mph47%30.18 "Hg10 mi
2:51 PM41 °FPassing clouds.7 mph49%30.17 "Hg10 mi
1:51 PM41 °FPassing clouds.7 mph47%30.18 "Hg10 mi
12:51 PM39 °FPassing clouds.6 mph53%30.20 "Hg10 mi
11:51 AM37 °FPassing clouds.5 mph54%30.23 "Hg10 mi
Weather by CustomWeather, © 2014

See weather overviewHow to use our weather pages